Regional Weather Roundup
Issued by NWS Charleston, SC

Current Version | Previous Version | Graphics & Text | Print | Product List | Glossary On
Versions: 1 2 3 4 5 6 7 8 9 10 11 12 13 14 15 16 17 18 19 20 21 22 23 24 25 26 27 28 29 30 31 32 33 34 35 36 37 38 39 40 41 42 43 44 45 46 47 48 49 50
000
ASUS42 KCHS 260413
RWRCHS

REGIONAL WEATHER ROUNDUP
NATIONAL WEATHER SERVICE CHARLESTON SC
1200 AM EDT THU MAY 26 2016

NOTE: "FAIR" INDICATES FEW OR NO CLOUDS BELOW 12,000 FEET WITH NO
SIGNIFICANT WEATHER AND/OR OBSTRUCTIONS TO VISIBILITY.

NOT ALL STATIONS ARE QUALITY CONTROLLED. USE DATA WITH CAUTION...
ESPECIALLY DEWPOINT OBSERVATIONS.

SCZ027-030-031-034>040-042>050-260500-
...SOUTHEAST SOUTH CAROLINA...

CITY           SKY/WX    TMP DP  RH WIND       PRES   REMARKS
N CHARLESTON   CLEAR     71  66  84 S7        30.21F
WATERFRONT PRK   N/A     75  69  81 S6        30.20R
MOUNT PLEASANT FAIR      70  66  88 CALM      30.22S
JOHNS ISLAND   FAIR      73  70  88 S7        30.22S
PINOPOLIS        N/A     73  64  73 VRB2      30.14R
MONCKS CORNER  FAIR      64  57  77 CALM      30.21S
SUMMERVILLE    FAIR      68  68 100 SE3       30.22F
BEAUFORT MCAS  CLEAR     74  68  81 S3        30.21S
BEAUFORT ARPT  FAIR      72  66  83 S5        30.21S
HILTON HEAD IS CLEAR     75  68  78 S8G14     30.22S
WALTERBORO     CLEAR     70  66  88 CALM      30.22S
ALLENDALE      FAIR      70  63  78 CALM      30.19F

...SOUTHERN MIDLANDS AND PEE DEE...

CITY           SKY/WX    TMP DP  RH WIND       PRES   REMARKS
GEORGETOWN     MOCLDY    68  64  88 CALM      30.23S
KINGSTREE      FAIR      68  59  73 SE3       30.20S
ORANGEBURG     CLEAR     70  63  78 S5        30.20F
BARNWELL       FAIR      75  64  69 CALM      30.20F
AIKEN          FAIR      68  57  68 S6        30.23F
MANNING        FAIR      72  63  73 S3        30.21S
COLUMBIA       CLEAR     70  58  65 SW5       30.18S
SUMTER         CLEAR     70  60  70 S3        30.17S
FLORENCE       CLEAR     72  61  68 S8        30.19F
MYRTLE BEACH   CLEAR     73  64  73 SW8       30.23S
N MYRTLE BEACH CLEAR     74  69  85 SW10      30.21S

$$

GAZ063-065-086>088-099>101-113>116-118-119-134>141-150-260500-
...SOUTHEAST GEORGIA...

CITY           SKY/WX    TMP DP  RH WIND       PRES   REMARKS
SAVANNAH ARPT  PTCLDY    71  65  81 S3        30.22S
HUNTER AAF     CLEAR     73  68  86 SE5       30.19S
FORT STEWART   CLEAR     68  63  83 CALM      30.19F
STATESBORO     CLEAR     72  64  77 CALM      30.21S
SYLVANIA       CLEAR     74  64  70 CALM      30.21F
CLAXTON        FAIR      67  64  88 CALM      30.21S

...CSRA...CENTRAL AND FAR SOUTHEAST GEORGIA...

CITY           SKY/WX    TMP DP  RH WIND       PRES   REMARKS
THOMSON        CLEAR     69  66  90 CALM      30.22F
AUGUSTA-BUSH   CLEAR     67  63  87 SE3       30.17F
AUGUSTA-DANIEL CLEAR     76  59  55 SE5       30.19F
SWAINSBORO     FAIR      72  61  68 S3        30.20F
VIDALIA        CLEAR     73  61  64 S3        30.20F
EASTMAN        FAIR      66  66 100 SE3       30.21F
HAZLEHURST     FAIR      74  60  61 CALM      30.19F
ALMA           CLEAR     70  59  68 SE3       30.20S
WAYCROSS       CLEAR     73  62  68 SE7       30.20F
JESUP          FAIR      63  59  88 CALM      30.21F
BAXLEY         FAIR      73  61  64 SE3       30.20F
BRUNSWICK      CLEAR     72  68  88 CALM      30.22F
SAINT SIMONS   CLEAR     76  66  71 SE7       30.21S

$$

SCZ027-028-034-036>038-045-046-048>050-GAZ119-141-260500-
...LAKE AND SUPPLEMENTAL COASTAL OBSERVATIONS...

STATION/POSITION TIME  TEMP    WIND        PRES    WAVE   SWELL
                       AIR SEA DIR/SP/G            HT/PER HT/PER/DIR
                 (UTC) (F)     (DEG/KT/KT) (MB)    (FT/S) (FT/S/D)
WINYAH BAY       0245   74     210/  5     1022.0
LAKE MURRAY      0300   75        CALM     1021.7S
ACE BASIN NERRS  NOT AVBL
FORT PULASKI     0300   75 76                N/A
SAPELO ISLAND    0300   75     140/  5     1023.0S

$$

ANZ835-935-AMZ111-154-330-350-352-354-370-450-454-472-260500-
...C-MAN AND BUOY OBSERVATIONS...

STATION/POSITION TIME  TEMP    WIND        PRES    WAVE   SWELL
                       AIR SEA DIR/SP/G            HT/PER HT/PER/DIR
                 (UTC) (F)     (DEG/KT/KT) (MB)    (FT/S) (FT/S/D)
BUOY 41004       0350   78 76  180/ 10/ 10 1023.0R   2/ 9   2/ 9
BUOY 41008       0350   77 77  150/ 10/ 12 1023.2R   2/10   2/100/10
FOLLY BEACH CMAN 0300   76     190/  9/ 11 1023.5R
CAPERS NEARSHORE 0308   76 76  210/ 10/ 12 1023.1R
FRIPP NEARSHORE  0308   76 77  190/ 10/ 12 1022.6R


STATION/POSITION TIME  TEMP    WIND        PRES    WAVE   SWELL
                       AIR SEA DIR/SP/G            HT/PER HT/PER/DIR
                 (UTC) (F)     (DEG/KT/KT) (MB)    (FT/S) (FT/S/D)
5E ST. MARYS GA  0321      78                N/A     2/10
FRYING PAN BUOY  0300   78 77  190/ 10/ 12 1023.0S
BUOY 41025       0350   72 69  220/  6/  6 1022.9R   3/ 8   2/130/ 8
CAPE LOOKOUT NC  0300   72     210/  7/  8 1022.7S
BUOY 41002       0350   75 78   70/ 10/ 14 1023.8S   2/ 9   2/ 70/ 9
BUOY 41010       0320   76 78   70/ 10/ 12 1022.3F
ST AUGUSTINE FL  0400   77 80  110/  9/ 11 1023.8S


$$




USA.gov is the U.S. government's official web portal to all federal, state and local government web resources and services.